Regional Weather Roundup
Issued by NWS

Home | Current Version | Previous Version | Graphics & Text | Print | Product List | Glossary On
Versions: 1 2 3 4 5 6 7 8 9 10 11 12 13 14 15 16 17 18 19 20 21 22 23 24 25 26 27 28 29 30 31 32 33 34 35 36 37 38 39 40 41 42 43 44 45 46 47 48 49 50
000
ASUS43 KMKX 260500
RWRWI

WISCONSIN REGIONAL WEATHER ROUNDUP
NATIONAL WEATHER SERVICE MILWAUKEE/SULLIVAN WI
1200 AM CDT MON JUN 26 2017

NOTE: "FAIR" INDICATES FEW OR NO CLOUDS BELOW 12,000 FEET WITH NO
SIGNIFICANT WEATHER AND/OR OBSTRUCTIONS TO VISIBILITY.

WIZ001-002-006>008-014>016-023>028-260600-
NORTHWEST WISCONSIN

CITY           SKY/WX    TMP DP  RH WIND       PRES   REMARKS
SUPERIOR ARPT  NOT AVBL
ASHLAND        CLOUDY    49  46  90 W6        30.08S
HAYWARD        CLEAR     48  44  86 CALM      30.09F
SIREN          CLEAR     44  42  92 CALM      30.13S
CUMBERLAND     PTCLDY    48  43  81 NW5       30.11F
RICE LAKE      PTCLDY    50  47  89 CALM      30.13S
CHETEK         CLEAR     49  47  93 NW3       30.11S
LADYSMITH      CLEAR     50  47  89 W7        30.10F
EAU CLAIRE     NOT AVBL
MENOMONIE      CLEAR     51  48  88 W3        30.11S
NEW RICHMOND   CLEAR     51  44  77 CALM      30.13S
OSCEOLA        PTCLDY    49  46  86 CALM      30.15S
$$

WIZ003>005-009-010-017-018-260600-
NORTH CENTRAL WISCONSIN

CITY           SKY/WX    TMP DP  RH WIND       PRES   REMARKS
MANITOWISH WTR CLOUDY    47  47 100 W8        30.04S
ARBOR VITAE    CLOUDY    52  50  92 NW7       30.03F
WOODRUFF       CLOUDY    52  50  92 NW7       30.03F
RHINELANDER    MOCLDY    45  45 100 W5        30.04F
EAGLE RIVER    CLOUDY    47  47  99 W5        30.03S
LAND O LAKES   CLOUDY    49  47  95 NW3       30.03F
PHILLIPS       CLEAR     47  46  96 CALM      30.06F
TOMAHAWK       NOT AVBL
MEDFORD        PTCLDY    49  47  92 W6        30.07F
MERRILL        PTCLDY    49  49  99 CALM      30.06F
$$

WIZ029-030-035-036-043>047-260600-
CENTRAL WISCONSIN

CITY           SKY/WX    TMP DP  RH WIND       PRES   REMARKS
WAUSAU         PTCLDY    50  48  93 W7        30.04F
MOSINEE        CLEAR     48  46  93 W6        30.07F
MARSHFIELD     CLEAR     49  45  86 W5        30.07F
STEVENS POINT  CLEAR     50  49  95 W3        30.07F
WAUPACA        PTCLDY    54  52  94 W5        30.06S
WAUTOMA        CLEAR     51  48  89 SW5       30.08F
WISC RAPIDS    CLEAR     50  47  89 W5        30.09S
CAMP DOUGLAS   NOT AVBL
$$

WIZ011>013-019>022-031-037>040-048>050-260600-
NORTHEAST WISCONSIN

CITY           SKY/WX    TMP DP  RH WIND       PRES   REMARKS
ANTIGO         CLEAR     48  45  91 NW9       30.05S
SHAWANO        CLEAR     53  49  86 W6        30.04S
OCONTO         CLEAR     52  49  89 W8        30.01S
STURGEON BAY     N/A     56  51  84 NW14        N/A
GREEN BAY      CLEAR     54  51  90 W8        30.03F
MANITOWOC      NOT AVBL
APPLETON       CLEAR     52  50  93 W6        30.04S
CLINTONVILLE   PTCLDY    52  46  82 W5        30.04F
OSHKOSH        CLEAR     54  51  90 W3        30.05F
$$

WIZ032>034-041-042-053>061-260600-
SOUTHWEST WISCONSIN

CITY           SKY/WX    TMP DP  RH WIND       PRES   REMARKS
LA CROSSE      CLEAR     59  50  72 CALM      30.11R
SPARTA         CLEAR     49  47  95 CALM      30.12S
VIROQUA        CLEAR     54  47  77 W5        30.11F
BOSCOBEL       CLEAR     52  49  89 SW5       30.12S
PRAIRIE DU CHI CLEAR     52  47  84 CALM      30.13S
PLATTEVILLE    CLEAR     55  50  83 SW3       30.14S
$$

WIZ056-057-062-063-064-067-068-260600-
SOUTH CENTRAL WISCONSIN

CITY           SKY/WX    TMP DP  RH WIND       PRES   REMARKS
REEDSBURG      MOCLDY    51  51 100 CALM      30.10F
BARABOO/DELLS  MOCLDY    52  50  92 CALM      30.10F
LONE ROCK      NOT AVBL
MINERAL POINT  CLEAR     54  50  87 SW5       30.12S
MADISON        CLOUDY    54  52  93 NW3       30.10S
MIDDLETON      PTCLDY    51  51 100 CALM      30.11S
WATERTOWN      NOT AVBL
MONROE         CLEAR     54  46  76 W9        30.11F
JANESVILLE     PTCLDY    55  52  88 CALM      30.11S
$$

WIZ051-052-058>065-066-070>072-260600-
SOUTHEAST WISCONSIN

CITY           SKY/WX    TMP DP  RH WIND       PRES   REMARKS
MILWAUKEE      MOCLDY    58  53  84 W7        30.08S
WAUKESHA       CLOUDY    54  52  94 W9        30.10S
MILWAUKEE/TIMM CLEAR     55  48  76 W7        30.08S
RACINE         PTCLDY    56  51  84 W6        30.10S
KENOSHA        PTCLDY    56  50  80 W8        30.10S
FOND DU LAC    CLEAR     55  50  83 W3        30.07S
SHEBOYGAN      CLEAR     55  54  96 W7        30.04F
WEST BEND      CLEAR     54  52  94 W7        30.07S
JUNEAU         CLEAR     52  50  93 W3        30.09S
$$

LSZ147-162-260600-
LAKE SUPERIOR

STATION/POSITION TIME  TEMP    WIND        PRES    WAVE
                       AIR SEA DIR/SP/G            HT/PER
                 (UTC) (F)     (DEG/KT/KT) (MB)    (FT/S)
W MID LAKE BUOY  0350   43 39  330/ 12/ 14 1017.1F   0
DEVILS ISLAND    0400   49     330/ 13/ 15 1018.6S
SAXON HARBOR     0440   53     340/ 15/ 17 1017.6S
$$

LMZ867-665-643>646-260600-
LAKE MICHIGAN

STATION/POSITION TIME  TEMP    WIND        PRES    WAVE
                       AIR SEA DIR/SP/G            HT/PER
                 (UTC) (F)     (DEG/KT/KT) (MB)    (FT/S)
CHAMBERS ISLAND  0440   56     270/  4/  7 1014.9F
S GREEN BAY BUOY 0430   58     280/ 16/ 19 1015.8F
N MID LAKE BUOY  0350   57 57  340/  8/ 10 1015.5R   2/ 5
NORTHPORT PIER   0440   59     320/  8/ 11 1015.2S
KEWAUNEE LAKESHO 0430   57     280/  7/ 11 1015.6F
SHEBOYGAN LAKESH 0400   58     260/ 10/ 11 1017.1F
PORT WASHINGTON  0430   58     260/  6/ 11 1018.6S
ATWATER BUOY     0309   59 57  270/ 12/ 16 1018.2R
MILWAUKEE LAKESH 0430   58     280/  9/ 11   N/A
S MID LAKE BUOY  0350   60 61  310/ 17/ 21 1017.7F   3/ 4
KENOSHA   LAKESH 0400   60     270/  8/ 15 1018.6
$$

TC  - TEMPERATURE IN CELSIUS
VSB - VISIBILITY IN STATUTE MILES
WCI - WIND CHILL INDEX
HX  - HEAT INDEX





USA.gov is the U.S. government's official web portal to all federal, state and local government web resources and services.